Location: Ingoldesthorpe
(52.8667°N, 0.5167°E)
Time: 21:11:30
(UTC+00:00)

Cosmos 158 Rocket - Pass Details

Date: 19 May 2025
Orbit: 694 x 787 km, 74.0° (Epoch: 18 June)

Event Time Altitude Azimuth Distance (km) Brightness Sun altitude
Rises 20:31:47 0° 183° (S) 3,233 6.9 -5.0°
Reaches altitude 10° 20:34:13 10° 177° (S) 2,321 6.1 -5.3°
Maximum altitude 20:39:14 45° 106° (ESE) 1,059 4.4 -5.8°
Drops below altitude 10° 20:44:20 10° 35° (NE) 2,360 6.7 -6.4°
Sets 20:46:49 0° 30° (NNE) 3,293 7.5 -6.6°
